GW5109 Weather Reports


time (UTC)temp
C
wind
direction
speed
KPH
gust
KPH
rain 1hr
cm
rain 24hr
cm
rain mn
cm
humidity
%
barometer
mb
20260508121836 10 350 0.0 1.6 0.00 0.00 0.00 58 1018.9
20260508121334 9 229 0.0 4.8 0.00 0.00 0.00 58 1018.9
20260508120831 9 224 3.2 3.2 0.00 0.00 0.00 57 1018.8
20260508120329 9 237 3.2 4.8 0.00 0.00 0.00 57 1018.7
20260508115826 8 256 1.6 3.2 0.00 0.00 0.00 60 1018.8
20260508115323 8 229 0.0 4.8 0.00 0.00 0.00 60 1018.8
20260508114820 8 242 1.6 3.2 0.00 0.00 0.00 60 1018.9
20260508114317 8 254 1.6 4.8 0.00 0.00 0.00 61 1018.7
20260508113813 8 242 1.6 3.2 0.00 0.00 0.00 65 1018.7
20260508113312 7 293 1.6 3.2 0.00 0.00 0.00 65 1018.8
20260508112808 7 280 1.6 4.8 0.00 0.00 0.00 63 1018.7
20260508112307 7 226 0.0 4.8 0.00 0.00 0.00 67 1018.7
20260508111801 6 267 1.6 3.2 0.00 0.00 0.00 68 1018.7
20260508111259 6 263 1.6 3.2 0.00 0.00 0.00 68 1018.5
20260508110756 6 224 1.6 4.8 0.00 0.00 0.00 70 1018.2
20260508110253 5 226 0.0 4.8 0.00 0.00 0.00 74 1018.4
20260508105753 5 226 1.6 3.2 0.00 0.00 0.00 74 1018.5
20260508105250 5 271 3.2 3.2 0.00 0.00 0.00 75 1018.5
20260508104747 5 247 3.2 3.2 0.00 0.00 0.00 75 1018.2
20260508104244 4 188 0.0 3.2 0.00 0.00 0.00 76 1018.4
20260508103741 3 240 3.2 3.2 0.00 0.00 0.00 78 1018.4
20260508103238 3 249 1.6 3.2 0.00 0.00 0.00 79 1018.1
20260508102735 3 285 3.2 3.2 0.00 0.00 0.00 78 1018.2
20260508102233 3 235 1.6 3.2 0.00 0.00 0.00 80 1018.0
20260508101730 3 244 3.2 3.2 0.00 0.00 0.00 81 1017.9
20260508101228 3 262 0.0 3.2 0.00 0.00 0.00 82 1018.0
20260508100725 2 236 1.6 1.6 0.00 0.00 0.00 84 1017.9
20260508100223 2 203 0.0 0.0 0.00 0.00 0.00 84 1018.0
20260508095719 2 196 0.0 0.0 0.00 0.00 0.00 84 1018.0
20260508095217 2 244 1.6 1.6 0.00 0.00 0.00 84 1017.9
20260508094713 2 203 0.0 0.0 0.00 0.00 0.00 86 1017.9
20260508094210 2 204 0.0 0.0 0.00 0.00 0.00 86 1017.8
20260508093707 2 224 0.0 0.0 0.00 0.00 0.00 86 1017.9
20260508093205 2 208 0.0 0.0 0.00 0.00 0.00 86 1017.7
20260508092702 2 213 0.0 0.0 0.00 0.00 0.00 85 1017.8
20260508092200 2 197 0.0 0.0 0.00 0.00 0.00 84 1017.9
20260508091657 2 210 0.0 0.0 0.00 0.00 0.00 84 1017.7
20260508091154 2 188 0.0 0.0 0.00 0.00 0.00 84 1017.7
20260508090652 2 204 0.0 0.0 0.00 0.00 0.00 83 1017.7
20260508090149 2 193 0.0 0.0 0.00 0.00 0.00 83 1017.6
20260508085640 2 199 0.0 0.0 0.00 0.00 0.00 83 1017.4
20260508085138 2 180 0.0 0.0 0.00 0.00 0.00 82 1017.5
20260508084634 2 196 0.0 0.0 0.00 0.00 0.00 82 1017.5
20260508084131 2 205 0.0 0.0 0.00 0.00 0.00 84 1017.5
20260508083628 2 137 0.0 0.0 0.00 0.00 0.00 83 1017.6
20260508083126 2 139 0.0 0.0 0.00 0.00 0.00 83 1017.4
20260508082621 3 188 0.0 0.0 0.00 0.00 0.00 82 1017.5
20260508082119 3 200 0.0 1.6 0.00 0.00 0.00 80 1017.2
20260508081616 3 141 0.0 0.0 0.00 0.00 0.00 79 1017.4
20260508081112 3 146 0.0 1.6 0.00 0.00 0.00 79 1017.4
20260508080610 3 233 0.0 1.6 0.00 0.00 0.00 80 1017.4
20260508080108 3 134 1.6 1.6 0.00 0.00 0.00 79 1017.4
20260508075603 3 156 0.0 1.6 0.00 0.00 0.00 78 1017.4
20260508075101 3 165 0.0 1.6 0.00 0.00 0.00 80 1017.3
20260508074559 3 142 0.0 1.6 0.00 0.00 0.00 80 1017.5
20260508074055 3 168 0.0 0.0 0.00 0.00 0.00 79 1017.3
20260508073552 3 197 0.0 0.0 0.00 0.00 0.00 80 1017.1
20260508073050 3 153 1.6 1.6 0.00 0.00 0.00 81 1017.1
20260508072545 3 154 0.0 0.0 0.00 0.00 0.00 81 1017.1
20260508072043 3 147 0.0 0.0 0.00 0.00 0.00 82 1017.2
20260508071540 3 169 0.0 0.0 0.00 0.00 0.00 81 1017.2
20260508071038 3 169 0.0 0.0 0.00 0.00 0.00 80 1017.3
20260508070535 3 169 0.0 0.0 0.00 0.00 0.00 80 1017.3
20260508070035 3 170 0.0 0.0 0.00 0.00 0.00 80 1017.4
20260508065531 3 170 0.0 0.0 0.00 0.00 0.00 80 1017.2
20260508065030 3 170 0.0 0.0 0.00 0.00 0.00 79 1017.3
20260508064526 4 179 0.0 0.0 0.00 0.00 0.00 77 1017.3
20260508064025 4 233 0.0 0.0 0.00 0.00 0.00 74 1017.3
20260508063521 5 228 0.0 0.0 0.00 0.00 0.00 73 1017.2
20260508063019 5 238 0.0 0.0 0.00 0.00 0.00 72 1017.4
20260508062516 5 233 0.0 3.2 0.00 0.00 0.00 72 1017.3
20260508062013 5 231 0.0 1.6 0.00 0.00 0.00 72 1017.5
20260508061511 5 222 0.0 1.6 0.00 0.00 0.00 72 1017.5
20260508061007 6 232 1.6 1.6 0.00 0.00 0.00 69 1017.4
20260508060504 6 233 0.0 1.6 0.00 0.00 0.00 69 1017.5
20260508060001 6 235 1.6 3.2 0.00 0.00 0.00 70 1017.5
20260508055457 6 235 1.6 1.6 0.00 0.00 0.00 69 1017.6
20260508054953 6 229 0.0 3.2 0.00 0.00 0.00 71 1017.5
20260508054450 6 233 1.6 3.2 0.00 0.00 0.00 69 1017.4
20260508053947 6 240 0.0 3.2 0.00 0.00 0.00 69 1017.6
20260508053444 6 239 0.0 3.2 0.00 0.00 0.00 70 1017.5
20260508052942 6 226 0.0 0.0 0.00 0.00 0.00 71 1017.3
20260508052439 6 236 0.0 1.6 0.00 0.00 0.00 71 1017.3
20260508051936 6 203 0.0 1.6 0.00 0.00 0.00 69 1017.3
20260508051431 6 228 1.6 3.2 0.00 0.00 0.00 69 1017.1
20260508050928 6 215 3.2 3.2 0.00 0.00 0.00 69 1017.0
20260508050424 6 246 3.2 3.2 0.00 0.00 0.00 69 1017.0
20260508045921 6 219 1.6 3.2 0.00 0.00 0.00 70 1017.1
20260508045418 6 232 0.0 0.0 0.00 0.00 0.00 69 1016.8
20260508044916 6 256 1.6 1.6 0.00 0.00 0.00 69 1016.7
20260508044413 6 230 1.6 4.8 0.00 0.00 0.00 69 1017.1
20260508043908 7 228 0.0 3.2 0.00 0.00 0.00 69 1016.6
20260508043406 7 227 3.2 4.8 0.00 0.00 0.00 68 1016.8
20260508042902 7 256 1.6 3.2 0.00 0.00 0.00 68 1016.8
20260508042400 7 258 0.0 1.6 0.00 0.00 0.00 68 1017.0
20260508041856 7 245 1.6 4.8 0.00 0.00 0.00 66 1016.7
20260508041353 7 242 6.4 9.7 0.00 0.00 0.00 67 1016.7
20260508040849 7 209 1.6 4.8 0.00 0.00 0.00 69 1017.0
20260508040347 7 244 3.2 3.2 0.00 0.00 0.00 68 1016.6
20260508035844 8 251 4.8 6.4 0.00 0.03 0.03 66 1016.7
20260508035341 7 244 3.2 6.4 0.00 0.03 0.03 68 1016.7
20260508034838 7 230 1.6 4.8 0.00 0.03 0.03 69 1016.6
20260508034335 7 229 1.6 6.4 0.00 0.03 0.03 69 1016.6
20260508033832 7 229 1.6 4.8 0.00 0.03 0.03 69 1016.5
20260508033330 7 231 3.2 3.2 0.00 0.03 0.03 71 1016.6
20260508032827 8 211 1.6 4.8 0.00 0.03 0.03 71 1016.7
20260508032325 8 219 0.0 1.6 0.00 0.03 0.03 68 1016.6
20260508031821 8 222 0.0 4.8 0.00 0.03 0.03 67 1016.4
20260508031318 8 213 1.6 6.4 0.00 0.03 0.03 67 1016.5
20260508030814 8 209 1.6 6.4 0.00 0.03 0.03 68 1016.5
20260508030312 8 206 1.6 9.7 0.00 0.03 0.03 70 1016.4
20260508025808 7 225 1.6 3.2 0.00 0.03 0.03 71 1016.4
20260508025306 8 217 0.0 1.6 0.00 0.03 0.03 72 1016.2
20260508024801 8 238 3.2 3.2 0.00 0.03 0.03 71 1016.2
20260508024258 8 257 3.2 3.2 0.00 0.03 0.03 70 1016.2
20260508023755 8 205 0.0 3.2 0.00 0.03 0.03 70 1016.3
20260508023253 8 226 3.2 4.8 0.00 0.03 0.03 69 1016.1
20260508022748 8 253 3.2 6.4 0.00 0.03 0.03 68 1016.0
20260508022245 8 226 1.6 1.6 0.00 0.03 0.03 69 1015.9
20260508021742 8 230 3.2 4.8 0.00 0.03 0.03 68 1016.0
20260508021237 9 260 3.2 4.8 0.00 0.03 0.03 68 1015.8
20260508020735 9 233 1.6 4.8 0.00 0.03 0.03 69 1015.8
20260508020232 9 246 3.2 3.2 0.00 0.03 0.03 69 1015.7
20260508015729 9 232 0.0 4.8 0.00 0.03 0.03 69 1015.8
20260508015226 9 240 3.2 3.2 0.00 0.03 0.03 69 1015.4
20260508014723 9 240 3.2 3.2 0.00 0.03 0.03 69 1015.8
20260508014220 9 235 1.6 4.8 0.00 0.03 0.03 69 1015.6
20260508013715 10 234 1.6 3.2 0.00 0.03 0.03 68 1015.4
20260508013212 10 256 3.2 3.2 0.00 0.03 0.03 68 1015.2
20260508012710 9 235 3.2 3.2 0.00 0.03 0.03 71 1015.4
20260508012206 9 244 1.6 3.2 0.00 0.03 0.03 70 1015.0
20260508011705 9 224 0.0 3.2 0.00 0.03 0.03 72 1015.1
20260508011202 9 245 1.6 1.6 0.00 0.03 0.03 71 1015.0
20260508010658 10 256 1.6 1.6 0.00 0.03 0.03 69 1014.8
20260508010156 10 228 0.0 1.6 0.00 0.03 0.03 68 1014.9
20260508005653 10 250 1.6 3.2 0.00 0.03 0.03 69 1015.0
20260508005150 10 280 0.0 3.2 0.00 0.03 0.03 68 1015.1
20260508004646 10 243 1.6 1.6 0.00 0.03 0.03 67 1015.0
20260508004142 10 193 3.2 4.8 0.00 0.03 0.03 66 1014.9
20260508003639 10 237 3.2 3.2 0.00 0.03 0.03 65 1014.6
20260508003136 10 223 1.6 4.8 0.00 0.03 0.03 66 1014.7
20260508002632 10 305 3.2 11.3 0.00 0.03 0.03 65 1014.7
20260508002131 10 215 1.6 3.2 0.00 0.03 0.03 66 1014.7
20260508001625 10 229 1.6 3.2 0.00 0.03 0.03 65 1014.5
20260508001122 11 270 1.6 1.6 0.00 0.03 0.03 66 1014.8
20260508000618 11 186 6.4 6.4 0.00 0.03 0.03 63 1014.5
20260508000115 11 27 3.2 11.3 0.00 0.03 0.03 64 1014.5
20260507235612 11 322 4.8 4.8 0.00 0.03 0.03 64 1014.6
20260507235109 11 322 8.0 11.3 0.00 0.03 0.03 63 1014.5
20260507234606 11 342 1.6 9.7 0.00 0.03 0.03 65 1014.5
20260507234102 11 306 3.2 11.3 0.00 0.03 0.03 66 1014.4
20260507233559 11 269 1.6 3.2 0.00 0.03 0.03 65 1014.4
20260507233058 11 359 8.0 11.3 0.00 0.03 0.03 64 1014.0
20260507232553 11 355 4.8 11.3 0.00 0.03 0.03 63 1014.3
20260507232051 12 251 1.6 6.4 0.00 0.03 0.03 63 1014.3
20260507231547 12 295 6.4 6.4 0.00 0.03 0.03 63 1014.2
20260507231045 12 243 3.2 6.4 0.00 0.03 0.03 63 1014.2
20260507230541 12 316 6.4 11.3 0.00 0.03 0.03 62 1014.0
20260507230038 12 326 4.8 14.5 0.00 0.03 0.03 61 1013.9
20260507225533 12 359 9.7 14.5 0.00 0.03 0.03 63 1014.3
20260507225030 12 9 0.0 1.6 0.00 0.03 0.03 64 1014.0
20260507224525 13 340 6.4 9.7 0.00 0.03 0.03 61 1013.9
20260507224022 12 349 1.6 3.2 0.00 0.03 0.03 63 1013.9
20260507223518 12 246 3.2 6.4 0.00 0.03 0.03 65 1013.8
20260507223016 12 306 1.6 3.2 0.00 0.03 0.03 65 1013.8
20260507222513 12 206 0.0 4.8 0.00 0.03 0.03 67 1013.8
20260507222009 12 5 1.6 9.7 0.00 0.03 0.03 64 1013.6
20260507221505 13 345 4.8 11.3 0.00 0.03 0.03 61 1013.7
20260507221002 14 357 3.2 4.8 0.00 0.03 0.03 59 1013.7
20260507220500 14 141 1.6 6.4 0.00 0.03 0.03 60 1013.4
20260507215956 14 124 0.0 3.2 0.00 0.03 0.03 62 1013.5
20260507215452 13 357 0.0 9.7 0.00 0.03 0.03 59 1013.5
20260507214950 13 336 4.8 6.4 0.00 0.03 0.03 60 1013.3
20260507214448 13 262 4.8 4.8 0.00 0.03 0.03 60 1013.4
20260507213943 14 212 9.7 12.9 0.00 0.03 0.03 57 1013.6
20260507213440 13 321 3.2 14.5 0.00 0.03 0.03 61 1013.4
20260507212937 12 225 11.3 14.5 0.00 0.03 0.03 61 1013.3
20260507212432 13 18 1.6 6.4 0.00 0.03 0.03 63 1013.3
20260507211930 12 21 0.0 6.4 0.00 0.03 0.03 65 1013.3
20260507211426 12 232 6.4 16.1 0.00 0.03 0.03 62 1013.1
20260507210923 13 249 9.7 12.9 0.00 0.03 0.03 62 1013.1
20260507210420 13 248 6.4 11.3 0.00 0.03 0.03 60 1013.1
20260507205917 13 255 3.2 14.5 0.00 0.03 0.03 61 1013.3
20260507205414 13 266 6.4 9.7 0.00 0.03 0.03 61 1013.1
20260507204910 13 309 8.0 12.9 0.00 0.03 0.03 60 1013.1
20260507204406 12 250 6.4 6.4 0.00 0.03 0.03 67 1013.1
20260507203904 12 246 4.8 17.7 0.00 0.03 0.03 66 1012.9
20260507203402 12 280 9.7 11.3 0.00 0.03 0.03 62 1013.2
20260507202858 12 262 4.8 6.4 0.00 0.03 0.03 63 1013.3
20260507202355 12 346 6.4 6.4 0.00 0.03 0.03 67 1013.3
20260507201850 12 302 6.4 12.9 0.00 0.03 0.03 65 1013.2
20260507201346 12 315 8.0 20.9 0.00 0.03 0.03 65 1013.4
20260507200842 13 319 3.2 4.8 0.00 0.03 0.03 64 1013.4
20260507200338 12 283 4.8 12.9 0.00 0.03 0.03 65 1013.5
20260507195835 12 61 3.2 6.4 0.00 0.03 0.03 67 1013.3
20260507195332 12 187 0.0 11.3 0.00 0.03 0.03 66 1013.1
20260507194829 12 254 4.8 12.9 0.00 0.03 0.03 66 1013.4
20260507194325 13 61 1.6 6.4 0.00 0.03 0.03 65 1013.3
20260507193822 13 185 3.2 12.9 0.00 0.03 0.03 64 1013.4
20260507193320 14 247 4.8 6.4 0.00 0.03 0.03 63 1013.4
20260507192815 13 174 3.2 4.8 0.00 0.03 0.03 64 1013.4
20260507192312 13 211 3.2 11.3 0.00 0.03 0.03 64 1013.4
20260507191808 13 261 6.4 22.5 0.00 0.03 0.03 67 1013.6
20260507191305 12 251 6.4 16.1 0.00 0.03 0.03 63 1013.5
20260507190802 14 235 6.4 6.4 0.00 0.03 0.03 62 1013.6
20260507190300 13 333 3.2 14.5 0.00 0.03 0.03 60 1013.6
20260507185758 12 263 3.2 14.5 0.00 0.03 0.03 68 1013.8
20260507185254 12 232 4.8 9.7 0.00 0.03 0.03 65 1013.8
20260507184752 12 290 4.8 9.7 0.00 0.03 0.03 66 1013.9
20260507184250 12 230 3.2 9.7 0.00 0.03 0.03 68 1013.9
20260507183747 12 242 1.6 4.8 0.00 0.03 0.03 66 1014.0
20260507183243 12 251 3.2 12.9 0.00 0.03 0.03 65 1013.9
20260507182741 12 261 9.7 14.5 0.00 0.03 0.03 62 1013.6
20260507182236 12 223 4.8 12.9 0.00 0.03 0.03 64 1013.6
20260507181733 11 283 3.2 11.3 0.00 0.03 0.03 68 1013.6
20260507181229 11 231 3.2 9.7 0.00 0.03 0.03 67 1013.7
20260507180726 11 261 6.4 11.3 0.00 0.03 0.03 68 1013.9
20260507180223 11 5 12.9 16.1 0.00 0.03 0.03 67 1013.9
20260507175718 12 338 9.7 11.3 0.00 0.03 0.03 65 1013.9
20260507175215 11 260 1.6 9.7 0.00 0.03 0.03 70 1013.8
20260507174713 12 348 8.0 14.5 0.00 0.03 0.03 68 1013.8
20260507174211 12 221 6.4 11.3 0.00 0.03 0.03 68 1013.9
20260507173708 11 287 3.2 6.4 0.00 0.03 0.03 70 1013.8
20260507173205 11 340 4.8 9.7 0.00 0.03 0.03 70 1013.9
20260507172701 12 321 3.2 11.3 0.00 0.03 0.03 67 1013.6
20260507172158 12 180 4.8 6.4 0.00 0.03 0.03 68 1013.9
20260507171653 12 16 6.4 9.7 0.00 0.03 0.03 69 1013.9
20260507171150 12 346 4.8 9.7 0.00 0.03 0.03 68 1014.2
20260507170647 12 261 4.8 12.9 0.00 0.03 0.03 68 1014.0
20260507170144 12 43 4.8 11.3 0.00 0.03 0.03 68 1014.0
20260507165639 12 32 1.6 4.8 0.00 0.03 0.03 72 1014.3
20260507165136 11 246 1.6 4.8 0.00 0.03 0.03 71 1014.2
20260507164632 11 259 8.0 14.5 0.00 0.03 0.03 68 1014.3
20260507164129 11 310 3.2 9.7 0.00 0.03 0.03 69 1014.2
20260507163626 11 214 6.4 11.3 0.00 0.03 0.03 68 1014.4
20260507163124 11 225 4.8 6.4 0.00 0.03 0.03 71 1014.3
20260507162619 11 290 1.6 6.4 0.00 0.03 0.03 69 1014.2
20260507162116 11 276 3.2 9.7 0.00 0.03 0.03 72 1014.5
20260507161612 11 177 1.6 3.2 0.00 0.03 0.03 75 1014.2
20260507161109 11 229 6.4 11.3 0.00 0.03 0.03 74 1014.4
20260507160605 10 339 4.8 9.7 0.00 0.03 0.03 74 1014.5
20260507155557 10 331 4.8 11.3 0.00 0.03 0.03 74 1014.7
20260507155054 10 287 1.6 4.8 0.00 0.03 0.03 75 1014.7
20260507154551 10 310 6.4 9.7 0.00 0.03 0.03 75 1014.6
20260507154048 10 6 4.8 6.4 0.00 0.03 0.03 75 1014.5
20260507153545 10 114 0.0 0.0 0.00 0.03 0.03 79 1014.7
20260507153041 10 39 1.6 4.8 0.00 0.03 0.03 76 1014.8
20260507152537 10 308 1.6 4.8 0.00 0.03 0.03 78 1014.6
20260507152034 9 7 3.2 4.8 0.00 0.03 0.03 78 1014.7
20260507151530 10 251 0.0 4.8 0.00 0.03 0.03 77 1014.9
20260507151027 9 105 1.6 3.2 0.00 0.03 0.03 78 1014.5
20260507150524 8 324 1.6 3.2 0.00 0.03 0.03 82 1014.7
20260507150021 8 347 1.6 4.8 0.00 0.03 0.03 80 1014.8
20260507145515 8 12 3.2 3.2 0.00 0.03 0.03 82 1014.8
20260507145014 8 289 3.2 4.8 0.00 0.03 0.03 81 1014.8
20260507144510 8 212 3.2 6.4 0.00 0.03 0.03 81 1014.9
20260507144008 8 307 3.2 6.4 0.00 0.03 0.03 80 1014.8
20260507143505 8 308 4.8 6.4 0.00 0.03 0.03 83 1014.9
20260507143002 8 283 0.0 3.2 0.00 0.03 0.03 82 1014.8
20260507142457 8 296 4.8 6.4 0.00 0.03 0.03 82 1014.9
20260507141954 8 222 3.2 4.8 0.00 0.03 0.03 83 1014.9
20260507141450 8 348 0.0 4.8 0.00 0.03 0.03 83 1015.1
20260507140947 8 135 0.0 0.0 0.00 0.03 0.03 84 1014.9
20260507140444 8 185 0.0 3.2 0.00 0.03 0.03 83 1015.2
20260507135942 8 169 0.0 1.6 0.00 0.03 0.03 85 1015.1
20260507135438 8 305 4.8 6.4 0.00 0.03 0.03 84 1015.0
20260507134936 8 272 1.6 4.8 0.00 0.03 0.03 84 1014.9
20260507134432 8 333 3.2 4.8 0.00 0.03 0.03 85 1015.0
20260507133928 7 293 1.6 3.2 0.00 0.03 0.03 87 1015.0
20260507133424 7 306 0.0 4.8 0.00 0.03 0.03 87 1015.1
20260507132923 7 334 1.6 9.7 0.00 0.03 0.03 87 1015.2
20260507132419 7 330 3.2 4.8 0.00 0.03 0.03 89 1015.2
20260507131915 7 334 0.0 3.2 0.00 0.03 0.03 90 1015.3
20260507131412 7 7 4.8 9.7 0.00 0.03 0.03 89 1015.3
20260507130909 8 255 1.6 3.2 0.00 0.03 0.03 91 1015.4
20260507130406 8 284 1.6 1.6 0.00 0.03 0.03 91 1015.0
20260507125905 7 245 1.6 3.2 0.00 0.03 0.03 91 1015.1
20260507125402 7 121 0.0 1.6 0.00 0.03 0.03 93 1015.2
20260507124900 7 346 1.6 1.6 0.00 0.03 0.03 93 1015.2
20260507124355 7 346 0.0 1.6 0.00 0.03 0.03 93 1015.1
20260507123854 7 315 3.2 3.2 0.00 0.03 0.03 93 1015.3
20260507123351 7 298 0.0 3.2 0.00 0.03 0.03 93 1015.4
20260507122847 7 144 1.6 1.6 0.00 0.03 0.03 93 1015.2
20260507122343 7 258 0.0 3.2 0.00 0.03 0.03 93 1015.3